IR1CH-3 Weather Reports


Display with metric or nautical units.
time (UTC)temp
F
wind
direction
speed
MPH
gust
MPH
rain 1hr
in
rain 24hr
in
rain mn
in
humidity
%
barometer
mb
20260506001121 58 0.0 0.0 0.00 0.00 0.00 99 1011.8
20260505234121 60 0.0 0.0 0.00 0.00 0.00 99 1011.5
20260505231120 58 0.0 0.0 0.00 0.00 0.00 99 1011.5
20260505224120 58 0.0 0.0 0.00 0.00 0.00 99 1011.9
20260505221120 58 0.0 0.0 0.00 0.00 0.00 99 1012.4
20260505214119 59 0.0 0.0 0.00 0.00 0.00 99 1012.7
20260505211120 59 0.0 0.0 0.00 0.00 0.00 99 1012.6
20260505204119 59 0.0 0.0 0.00 0.00 0.00 99 1012.9
20260505201118 59 0.0 0.0 0.00 0.00 0.00 99 1012.9
20260505194118 58 0.0 0.0 0.00 0.00 0.00 99 1012.8
20260505191118 59 0.0 0.0 0.00 0.00 0.00 99 1012.6
20260505184117 59 0.0 0.0 0.00 0.00 0.00 99 1012.8
20260505181117 60 0.0 0.0 0.00 0.00 0.00 99 1012.4
20260505174117 59 0.0 0.0 0.00 0.00 0.00 99 1012.5
20260505171116 59 0.0 0.0 0.00 0.00 0.00 98 1012.2
20260505164116 60 0.0 0.0 0.00 0.00 0.00 97 1012.3
20260505161116 60 0.0 0.0 0.00 0.00 0.00 98 1012.4
20260505151115 61 0.0 0.0 0.00 0.00 0.00 99 1012.5
20260505124113 59 0.0 0.0 0.00 0.00 0.00 99 1013.0
20260505121113 59 0.0 0.0 0.00 0.00 0.00 99 1013.1
20260505114113 58 0.0 0.0 0.00 0.00 0.00 99 1013.1
20260505111112 59 0.0 0.0 0.00 0.00 0.00 99 1013.2
20260505101112 60 0.0 0.0 0.00 0.00 0.00 99 1013.1
20260505094111 61 0.0 0.0 0.00 0.00 0.00 95 1012.7
20260505091111 62 0.0 0.0 0.00 0.00 0.00 94 1012.5
20260505084111 62 0.0 0.0 0.00 0.00 0.00 98 1012.5
20260505081110 59 0.0 0.0 0.00 0.00 0.00 99 1012.4
20260505074110 62 0.0 0.0 0.00 0.00 0.00 99 1012.0
20260505071110 62 0.0 0.0 0.00 0.00 0.00 99 1012.1
20260505064109 62 0.0 0.0 0.00 0.00 0.00 99 1012.1
20260505061109 59 0.0 0.0 0.00 0.00 0.00 99 1012.7
20260505054109 58 0.0 0.0 0.00 0.00 0.00 99 1012.2
20260505051108 56 0.0 0.0 0.00 0.00 0.00 99 1012.4
20260505041108 54 0.0 0.0 0.00 0.00 0.00 99 1012.5
20260505034107 56 0.0 0.0 0.00 0.00 0.00 99 1014.2
20260505031107 54 0.0 0.0 0.00 0.00 0.00 99 1014.5
20260505024107 58 0.0 0.0 0.00 0.00 0.00 99 1013.6
20260505021106 57 0.0 0.0 0.00 0.00 0.00 99 1014.3
20260505014106 57 0.0 0.0 0.00 0.00 0.00 99 1014.7
20260505011106 60 0.0 0.0 0.00 0.00 0.00 99 1015.5
20260505004105 59 0.0 0.0 0.00 0.00 0.00 99 1016.0